{"data":{"norad_id":47791,"intl_designator":"2021-018E","name":"STARLINK-2322","alt_names":[],"object_type":"PAYLOAD","status":"ACTIVE","operator":null,"country":"US","launch_date":"2021-03-11","launch_site_code":"AFETR","launch_vehicle":null,"mission":null,"orbit_class":"UNKNOWN","rcs_meters":null,"size_class":null,"mass_kg":null,"dimensions":null,"purposes":["comms"],"wikipedia_slug":null,"has_3d_model":false,"image_url":null,"decayed_at":null,"tle_current":{"epoch":"2026-09-20T01:58:54.538752Z","epoch_age_seconds":61913,"freshness":"FRESH","line1":"1 47791U 21018E   26263.08257568  .00040005  00000+0  91942-3 0  9996","line2":"2 47791  53.1585  55.4075 0002053 300.9480  59.1324 15.42306565306568","mean_motion":15.42306565,"eccentricity":0.0002053,"inclination_deg":53.1585,"raan_deg":55.4075,"arg_perigee_deg":300.948,"mean_anomaly_deg":59.1324,"bstar":0.00091942,"rev_number":30656,"period_min":93.366651784952,"perigee_km":437.90409247613,"apogee_km":440.70333363291,"semimajor_km":6817.4407130545,"source":"CELESTRAK","updated_at":"2026-09-20T09:00:38.605102Z"}}}